This demonstration page uses our WeatherBlox Daily Observations layout. Learn more.

Left ArrowRight Arrow

39.12711, -84.51439

Hourly Observations for June 22, 2016

Temp ( °F °C ) Dew Point ( °F °C ) Humidity (%) Winds ( mph kmh ) Pressure ( in mb ) Visibility ( mi km ) Precip ( " mm )
12:53 am 00:53 Clear 65 18.3 61 16.1 87 87 N N/A 29.97 1015 10 16 N/A
1:53 am 01:53 Clear 65 18.3 61 16.1 87 87 N N/A 29.96 1015 10 16 N/A
2:53 am 02:53 Clear 63 17.2 62 16.7 97 97 N N/A 29.96 1014 10 16 N/A
3:53 am 03:53 Clear 61 16.1 60 15.6 97 97 N N/A 29.96 1015 10 16 N/A
4:53 am 04:53 Clear 61 16.1 61 16.1 100 100 N N/A 29.95 1014 10 16 N/A
5:53 am 05:53 Partly Cloudy 62 16.7 62 16.7 100 100 N N/A 29.96 1015 10 16 N/A
6:53 am 06:53 Mostly Cloudy 62 16.7 62 16.7 100 100 N N/A 29.98 1015 10 16 N/A
7:53 am 07:53 Mostly Sunny 65 18.3 63 17.2 93 93 NE 3 6 29.98 1015 10 16 N/A
8:53 am 08:53 Mostly Cloudy 66 18.9 64 17.8 93 93 N N/A 30.01 1016 10 16 N/A
9:25 am 09:25 Mostly Cloudy with Thunderstorms 65 18.3 64 17.8 97 97 SW 5 7 30.00 1016 8 13 0.01 0.25
9:40 am 09:40 Partly Cloudy with Nearby Thunderstorms 64 18 64 18 100 100 SSW 6 9 30.03 1017 7 11 N/A
9:53 am 09:53 Partly Cloudy with Rain 66 18.9 65 18.3 96 96 SW 7 11 30.07 1018 5 8 0.03 0.76
10:53 am 10:53 Mostly Cloudy with Rain 66 18.9 65 18.3 96 96 N N/A 30.04 1017 5 8 0.15 3.81
11:53 am 11:53 Partly Cloudy 69 20.6 66 18.9 90 90 WSW 5 7 30.04 1017 10 16 0.02 0.51
12:53 pm 12:53 Mostly Cloudy 70 21 68 20 94 94 S 6 9 29.97 1015 10 16 N/A
1:35 pm 13:35 Partly Cloudy 70 21.1 69 20.6 97 97 VRB 3 6 29.97 1015 10 16 N/A
1:53 pm 13:53 Mostly Sunny 70 21.1 68 20 93 93 S 6 9 29.99 1016 10 16 N/A
2:45 pm 14:45 Mostly Cloudy 72 22.2 70 21.1 94 94 S 7 11 30.00 1016 10 16 N/A
2:53 pm 14:53 Mostly Cloudy 72 22.2 70 21.1 94 94 S 7 11 30.02 1017 10 16 N/A
3:53 pm 15:53 Partly Cloudy 74 23.3 70 21.1 88 88 N N/A 30.00 1016 10 16 N/A
4:53 pm 16:53 Mostly Sunny 76 24.4 71 21.7 85 85 S 13 20 29.93 1013 10 16 N/A
5:53 pm 17:53 Partly Cloudy 77 25 71 21.7 82 82 SSW 6 9 29.92 1013 10 16 N/A
6:53 pm 18:53 Partly Cloudy 78 25.6 72 22.2 82 82 NE 3 6 29.94 1014 10 16 N/A
7:53 pm 19:53 Mostly Sunny 78 25.6 72 22.2 82 82 ENE 6 9 29.95 1014 10 16 N/A
8:53 pm 20:53 Mostly Sunny 75 23.9 72 22.2 90 90 SSW 3 6 29.93 1014 10 16 N/A
9:53 pm 21:53 Mostly Clear 72 22.2 71 21.7 97 97 N N/A 29.91 1013 10 16 N/A
10:53 pm 22:53 Clear 72 22.2 72 22.2 100 100 SSW 3 6 29.91 1013 10 16 N/A
11:53 pm 23:53 Clear 73 22.8 72 22.2 96 96 S 5 7 29.88 1012 10 16 N/A

Powered by AerisWeather